User: anonymous   Login
Location: Unspecified
(0.0000°N, 0.0000°E)
Time: 15:28:06
(UTC+00:00)
Language:

UNISAT 6 - Orbit

View from above orbital plane
View from above orbital plane
View from above satellite
View from above satellite

Ground track
Ground track

The orbit data is extracted from the following two-line orbital elements,

1 40012U 14033C   18108.87624659  .00000224  00000-0  40866-4 0  9999
2 40012  97.8169 347.3180 0059349  31.5825 328.8923 14.73794633205963
Epoch (UTC): 18 April 2018 21:01:47
Eccentricity: 0.0059349
inclination: 97.8169°
perigee height: 607 km
apogee height: 690 km
right ascension of ascending node: 347.3180°
argument of perigee: 31.5825°
revolutions per day: 14.73794633
mean anomaly at epoch: 328.8923°
orbit number at epoch: 20596

The dashed part of the orbit path shows where the satellite is in the earth's shadow,  

DLR